| time (UTC) | temp F | wind direction | speed MPH | gust MPH | rain 1hr in | rain 24hr in | rain mn in | humidity % | barometer mb |
| 20260506145505 | 38 | 295 | 3.0 | 14.0 | 0.00 | 0.00 | 0.00 | 58 | 1017.3 |
| 20260506145005 | 38 | 259 | 9.0 | 14.0 | 0.00 | 0.00 | 0.00 | 58 | 1017.4 |
| 20260506144506 | 38 | 242 | 7.0 | 12.0 | 0.00 | 0.00 | 0.00 | 59 | 1017.4 |
| 20260506144004 | 38 | 273 | 7.0 | 12.0 | 0.00 | 0.00 | 0.00 | 59 | 1017.4 |
| 20260506143507 | 37 | 309 | 2.0 | 12.0 | 0.00 | 0.00 | 0.00 | 59 | 1017.3 |
| 20260506143011 | 37 | 303 | 6.0 | 12.0 | 0.00 | 0.00 | 0.00 | 60 | 1017.3 |
| 20260506142506 | 37 | 28 | 4.0 | 14.0 | 0.00 | 0.00 | 0.00 | 61 | 1017.3 |
| 20260506142006 | 37 | 221 | 6.0 | 14.0 | 0.00 | 0.00 | 0.00 | 58 | 1017.3 |
| 20260506141508 | 37 | 255 | 6.0 | 13.0 | 0.00 | 0.00 | 0.00 | 61 | 1017.3 |
| 20260506141007 | 37 | 237 | 7.0 | 13.0 | 0.00 | 0.00 | 0.00 | 61 | 1017.3 |
| 20260506140504 | 37 | 277 | 6.0 | 10.0 | 0.00 | 0.00 | 0.00 | 61 | 1017.3 |
| 20260506140029 | 37 | 284 | 3.0 | 11.0 | 0.00 | 0.00 | 0.00 | 62 | 1017.3 |
| 20260506135503 | 36 | 304 | 6.0 | 12.0 | 0.00 | 0.00 | 0.00 | 61 | 1017.3 |
| 20260506135002 | 36 | 321 | 5.0 | 12.0 | 0.00 | 0.00 | 0.00 | 62 | 1017.2 |
| 20260506134506 | 36 | 321 | 5.0 | 11.0 | 0.00 | 0.00 | 0.00 | 63 | 1017.2 |
| 20260506134005 | 36 | 271 | 4.0 | 13.0 | 0.00 | 0.00 | 0.00 | 62 | 1017.1 |
| 20260506133503 | 36 | 286 | 6.0 | 13.0 | 0.00 | 0.00 | 0.00 | 64 | 1017.1 |
| 20260506133013 | 36 | 291 | 4.0 | 11.0 | 0.00 | 0.00 | 0.00 | 67 | 1017.1 |
| 20260506132508 | 36 | 240 | 3.0 | 10.0 | 0.00 | 0.00 | 0.00 | 69 | 1017.1 |
| 20260506132003 | 36 | 241 | 5.0 | 10.0 | 0.00 | 0.00 | 0.00 | 70 | 1017.0 |
| 20260506131519 | 36 | 254 | 4.0 | 10.0 | 0.00 | 0.00 | 0.00 | 70 | 1016.9 |
| 20260506131010 | 36 | 248 | 6.0 | 10.0 | 0.00 | 0.00 | 0.00 | 70 | 1016.9 |
| 20260506130505 | 35 | 265 | 6.0 | 9.0 | 0.00 | 0.00 | 0.00 | 71 | 1016.7 |
| 20260506130012 | 35 | 281 | 4.0 | 9.0 | 0.00 | 0.00 | 0.00 | 71 | 1016.7 |
| 20260506125503 | 35 | 257 | 4.0 | 8.0 | 0.00 | 0.00 | 0.00 | 72 | 1016.7 |
| 20260506125004 | 35 | 205 | 4.0 | 8.0 | 0.00 | 0.00 | 0.00 | 72 | 1016.6 |
| 20260506124509 | 35 | 225 | 4.0 | 8.0 | 0.00 | 0.00 | 0.00 | 72 | 1016.5 |
| 20260506124006 | 35 | 261 | 4.0 | 7.0 | 0.00 | 0.00 | 0.00 | 73 | 1016.5 |
| 20260506123505 | 34 | 252 | 3.0 | 7.0 | 0.00 | 0.00 | 0.00 | 73 | 1016.3 |
| 20260506123016 | 34 | 268 | 4.0 | 7.0 | 0.00 | 0.00 | 0.00 | 74 | 1016.4 |
| 20260506122503 | 34 | 249 | 3.0 | 7.0 | 0.00 | 0.00 | 0.00 | 74 | 1016.3 |
| 20260506122007 | 34 | 250 | 3.0 | 7.0 | 0.00 | 0.00 | 0.00 | 75 | 1016.2 |
| 20260506121519 | 33 | 287 | 2.0 | 4.0 | 0.00 | 0.00 | 0.00 | 75 | 1016.1 |
| 20260506121003 | 33 | 238 | 2.0 | 5.0 | 0.00 | 0.00 | 0.00 | 76 | 1016.0 |
| 20260506120504 | 33 | 265 | 2.0 | 5.0 | 0.00 | 0.00 | 0.00 | 76 | 1015.9 |
| 20260506120020 | 32 | 287 | 1.0 | 4.0 | 0.00 | 0.00 | 0.00 | 76 | 1015.9 |
| 20260506115503 | 32 | 275 | 2.0 | 7.0 | 0.00 | 0.00 | 0.00 | 76 | 1016.0 |
| 20260506115003 | 31 | 298 | 3.0 | 7.0 | 0.00 | 0.00 | 0.00 | 77 | 1015.8 |
| 20260506114508 | 31 | 321 | 3.0 | 7.0 | 0.00 | 0.00 | 0.00 | 77 | 1015.7 |
| 20260506114005 | 31 | 295 | 2.0 | 7.0 | 0.00 | 0.00 | 0.00 | 77 | 1015.5 |
| 20260506113503 | 30 | 288 | 2.0 | 8.0 | 0.00 | 0.00 | 0.00 | 77 | 1015.4 |
| 20260506113014 | 30 | 309 | 4.0 | 8.0 | 0.00 | 0.00 | 0.00 | 77 | 1015.4 |
| 20260506112504 | 30 | 275 | 3.0 | 6.0 | 0.00 | 0.00 | 0.00 | 77 | 1015.4 |
| 20260506112006 | 30 | 272 | 2.0 | 7.0 | 0.00 | 0.00 | 0.00 | 77 | 1015.3 |
| 20260506111515 | 30 | 317 | 3.0 | 7.0 | 0.00 | 0.00 | 0.00 | 77 | 1015.3 |
| 20260506111006 | 30 | 309 | 2.0 | 4.0 | 0.00 | 0.00 | 0.00 | 77 | 1015.3 |
| 20260506110507 | 31 | 296 | 2.0 | 4.0 | 0.00 | 0.00 | 0.00 | 77 | 1015.2 |
| 20260506110026 | 30 | 315 | 2.0 | 4.0 | 0.00 | 0.00 | 0.00 | 77 | 1015.3 |
| 20260506105503 | 30 | 284 | 2.0 | 4.0 | 0.00 | 0.00 | 0.00 | 77 | 1015.5 |
| 20260506105006 | 30 | 273 | 2.0 | 6.0 | 0.00 | 0.00 | 0.00 | 77 | 1015.5 |
| 20260506104512 | 30 | 255 | 3.0 | 7.0 | 0.00 | 0.00 | 0.00 | 77 | 1015.6 |
| 20260506104005 | 30 | 242 | 2.0 | 7.0 | 0.00 | 0.00 | 0.00 | 77 | 1015.6 |
| 20260506103507 | 30 | 255 | 4.0 | 7.0 | 0.00 | 0.00 | 0.00 | 77 | 1015.6 |
| 20260506103019 | 30 | 269 | 3.0 | 8.0 | 0.00 | 0.00 | 0.00 | 77 | 1015.6 |
| 20260506102507 | 30 | 279 | 4.0 | 8.0 | 0.00 | 0.00 | 0.00 | 76 | 1015.7 |
| 20260506102006 | 30 | 269 | 5.0 | 8.0 | 0.00 | 0.00 | 0.00 | 76 | 1015.5 |
| 20260506101521 | 30 | 248 | 4.0 | 7.0 | 0.00 | 0.00 | 0.00 | 76 | 1015.4 |
| 20260506101006 | 30 | 257 | 3.0 | 7.0 | 0.00 | 0.00 | 0.00 | 75 | 1015.3 |
| 20260506100503 | 30 | 289 | 3.0 | 7.0 | 0.00 | 0.00 | 0.00 | 75 | 1015.2 |
| 20260506100018 | 30 | 254 | 2.0 | 6.0 | 0.00 | 0.00 | 0.00 | 75 | 1015.2 |
| 20260506095503 | 30 | 273 | 3.0 | 8.0 | 0.00 | 0.00 | 0.00 | 75 | 1015.1 |
| 20260506095004 | 30 | 248 | 3.0 | 8.0 | 0.00 | 0.00 | 0.00 | 75 | 1015.1 |
| 20260506094517 | 30 | 272 | 3.0 | 7.0 | 0.00 | 0.00 | 0.00 | 74 | 1015.2 |
| 20260506094008 | 31 | 254 | 3.0 | 7.0 | 0.00 | 0.00 | 0.00 | 74 | 1015.1 |
| 20260506093507 | 31 | 249 | 3.0 | 7.0 | 0.00 | 0.00 | 0.00 | 73 | 1015.3 |
| 20260506093021 | 31 | 255 | 3.0 | 7.0 | 0.00 | 0.00 | 0.00 | 73 | 1015.2 |
| 20260506092504 | 31 | 287 | 2.0 | 7.0 | 0.00 | 0.00 | 0.00 | 73 | 1015.0 |
| 20260506092007 | 31 | 277 | 2.0 | 7.0 | 0.00 | 0.00 | 0.00 | 73 | 1015.0 |
| 20260506091526 | 31 | 242 | 2.0 | 8.0 | 0.00 | 0.00 | 0.00 | 72 | 1015.0 |
| 20260506091007 | 31 | 275 | 4.0 | 8.0 | 0.00 | 0.00 | 0.00 | 73 | 1015.1 |
| 20260506090506 | 31 | 275 | 4.0 | 7.0 | 0.00 | 0.00 | 0.00 | 73 | 1015.2 |
| 20260506090025 | 31 | 261 | 4.0 | 8.0 | 0.00 | 0.00 | 0.00 | 73 | 1015.2 |
| 20260506085503 | 31 | 272 | 4.0 | 8.0 | 0.00 | 0.00 | 0.00 | 73 | 1015.2 |
| 20260506085003 | 31 | 248 | 4.0 | 8.0 | 0.00 | 0.00 | 0.00 | 73 | 1015.0 |
| 20260506084517 | 31 | 257 | 3.0 | 8.0 | 0.00 | 0.00 | 0.00 | 72 | 1014.9 |
| 20260506084007 | 31 | 275 | 3.0 | 7.0 | 0.00 | 0.00 | 0.00 | 71 | 1014.8 |
| 20260506083506 | 31 | 287 | 2.0 | 5.0 | 0.00 | 0.00 | 0.00 | 70 | 1014.7 |
| 20260506083027 | 31 | 265 | 1.0 | 4.0 | 0.00 | 0.00 | 0.00 | 69 | 1014.6 |
| 20260506082509 | 31 | 273 | 1.0 | 4.0 | 0.00 | 0.00 | 0.00 | 68 | 1014.7 |
| 20260506082006 | 32 | 282 | 1.0 | 3.0 | 0.00 | 0.00 | 0.00 | 67 | 1014.7 |
| 20260506081514 | 32 | 287 | 1.0 | 3.0 | 0.00 | 0.00 | 0.00 | 67 | 1014.7 |
| 20260506081012 | 32 | 309 | 1.0 | 3.0 | 0.00 | 0.00 | 0.00 | 66 | 1014.8 |
| 20260506080509 | 32 | 293 | 1.0 | 4.0 | 0.00 | 0.00 | 0.00 | 65 | 1014.9 |
| 20260506073509 | 34 | 295 | 1.0 | 3.0 | 0.00 | 0.00 | 0.00 | 64 | 1014.8 |
| 20260506073023 | 34 | 298 | 1.0 | 4.0 | 0.00 | 0.00 | 0.00 | 64 | 1014.7 |
| 20260506072510 | 34 | 304 | 1.0 | 7.0 | 0.00 | 0.00 | 0.00 | 64 | 1014.7 |
| 20260506072008 | 34 | 287 | 3.0 | 8.0 | 0.00 | 0.00 | 0.00 | 63 | 1014.6 |
| 20260506071523 | 34 | 312 | 2.0 | 8.0 | 0.00 | 0.00 | 0.00 | 63 | 1014.5 |
| 20260506071009 | 34 | 336 | 2.0 | 10.0 | 0.00 | 0.00 | 0.00 | 63 | 1014.5 |
| 20260506070504 | 34 | 316 | 5.0 | 10.0 | 0.00 | 0.00 | 0.00 | 63 | 1014.5 |
| 20260506062513 | 35 | 57 | 2.0 | 9.0 | 0.00 | 0.00 | 0.00 | 62 | 1014.5 |
| 20260506062009 | 35 | 337 | 3.0 | 13.0 | 0.00 | 0.00 | 0.00 | 61 | 1014.4 |
| 20260506061528 | 35 | 325 | 3.0 | 13.0 | 0.00 | 0.00 | 0.00 | 61 | 1014.4 |
| 20260506061007 | 35 | 329 | 5.0 | 10.0 | 0.00 | 0.00 | 0.00 | 62 | 1014.5 |
| 20260506060509 | 35 | 309 | 2.0 | 5.0 | 0.00 | 0.00 | 0.00 | 62 | 1014.5 |
| 20260506051009 | 37 | 234 | 2.0 | 6.0 | 0.00 | 0.00 | 0.00 | 58 | 1014.1 |
| 20260506050510 | 37 | 323 | 2.0 | 9.0 | 0.00 | 0.00 | 0.00 | 57 | 1013.9 |
| 20260506045007 | 38 | 291 | 2.0 | 7.0 | 0.00 | 0.00 | 0.00 | 56 | 1013.8 |
| 20260506044520 | 38 | 294 | 3.0 | 8.0 | 0.00 | 0.00 | 0.00 | 56 | 1013.8 |
| 20260506044006 | 39 | 286 | 3.0 | 9.0 | 0.00 | 0.00 | 0.00 | 56 | 1013.7 |
| 20260506043507 | 39 | 293 | 3.0 | 9.0 | 0.00 | 0.00 | 0.00 | 55 | 1013.8 |
| 20260506043027 | 39 | 296 | 3.0 | 10.0 | 0.00 | 0.00 | 0.00 | 56 | 1013.8 |
| 20260506042509 | 39 | 319 | 4.0 | 10.0 | 0.00 | 0.00 | 0.00 | 55 | 1013.7 |
| 20260506042010 | 39 | 323 | 4.0 | 9.0 | 0.00 | 0.00 | 0.00 | 55 | 1013.7 |
| 20260506041536 | 39 | 315 | 6.0 | 10.0 | 0.00 | 0.00 | 0.00 | 55 | 1013.8 |
| 20260506041008 | 39 | 306 | 4.0 | 12.0 | 0.00 | 0.00 | 0.00 | 55 | 1013.7 |
| 20260506040507 | 40 | 291 | 4.0 | 15.0 | 0.00 | 0.00 | 0.00 | 55 | 1013.7 |
| 20260506040029 | 40 | 316 | 5.0 | 15.0 | 0.00 | 0.00 | 0.00 | 55 | 1013.7 |
| 20260506035514 | 40 | 298 | 4.0 | 12.0 | 0.00 | 0.00 | 0.00 | 54 | 1013.7 |
| 20260506035009 | 40 | 288 | 5.0 | 11.0 | 0.00 | 0.00 | 0.00 | 54 | 1013.8 |
| 20260506034532 | 40 | 317 | 5.0 | 12.0 | 0.00 | 0.00 | 0.00 | 54 | 1013.6 |
| 20260506034013 | 40 | 321 | 5.0 | 13.0 | 0.00 | 0.00 | 0.00 | 54 | 1013.6 |
| 20260506033511 | 41 | 282 | 7.0 | 13.0 | 0.00 | 0.00 | 0.00 | 53 | 1013.5 |
| 20260506033025 | 41 | 298 | 6.0 | 12.0 | 0.00 | 0.00 | 0.00 | 53 | 1013.6 |
| 20260506032510 | 41 | 292 | 6.0 | 12.0 | 0.00 | 0.00 | 0.00 | 53 | 1013.6 |
| 20260506032011 | 41 | 297 | 7.0 | 13.0 | 0.00 | 0.00 | 0.00 | 53 | 1013.5 |
| 20260506031529 | 41 | 265 | 6.0 | 13.0 | 0.00 | 0.00 | 0.00 | 52 | 1013.6 |
| 20260506031009 | 41 | 292 | 6.0 | 14.0 | 0.00 | 0.00 | 0.00 | 52 | 1013.5 |
| 20260506030514 | 41 | 187 | 6.0 | 14.0 | 0.00 | 0.00 | 0.00 | 52 | 1013.5 |
| 20260506030029 | 41 | 317 | 6.0 | 13.0 | 0.00 | 0.00 | 0.00 | 51 | 1013.5 |
| 20260506025514 | 42 | 282 | 5.0 | 12.0 | 0.00 | 0.00 | 0.00 | 51 | 1013.5 |
| 20260506025007 | 42 | 286 | 6.0 | 12.0 | 0.00 | 0.00 | 0.00 | 50 | 1013.4 |
| 20260506024525 | 42 | 332 | 5.0 | 16.0 | 0.00 | 0.00 | 0.00 | 50 | 1013.3 |
| 20260506024008 | 42 | 273 | 8.0 | 16.0 | 0.00 | 0.00 | 0.00 | 49 | 1013.1 |
| 20260506023507 | 42 | 311 | 4.0 | 11.0 | 0.00 | 0.00 | 0.00 | 48 | 1013.0 |
| 20260506023026 | 42 | 284 | 5.0 | 11.0 | 0.00 | 0.00 | 0.00 | 48 | 1012.9 |
| 20260506022510 | 43 | 281 | 6.0 | 12.0 | 0.00 | 0.00 | 0.00 | 48 | 1012.9 |
| 20260506022012 | 43 | 310 | 4.0 | 14.0 | 0.00 | 0.00 | 0.00 | 47 | 1012.9 |
| 20260506021524 | 43 | 323 | 7.0 | 14.0 | 0.00 | 0.00 | 0.00 | 47 | 1012.8 |
| 20260506021010 | 43 | 292 | 5.0 | 16.0 | 0.00 | 0.00 | 0.00 | 46 | 1012.7 |
| 20260506020506 | 43 | 300 | 10.0 | 16.0 | 0.00 | 0.00 | 0.00 | 45 | 1012.6 |
| 20260506020021 | 44 | 321 | 9.0 | 16.0 | 0.00 | 0.00 | 0.00 | 45 | 1012.5 |
| 20260506015503 | 44 | 275 | 5.0 | 16.0 | 0.00 | 0.00 | 0.00 | 45 | 1012.5 |
| 20260506015005 | 44 | 303 | 10.0 | 16.0 | 0.00 | 0.00 | 0.00 | 45 | 1012.3 |
| 20260506014515 | 44 | 325 | 8.0 | 16.0 | 0.00 | 0.00 | 0.00 | 45 | 1012.3 |
| 20260506014006 | 44 | 312 | 5.0 | 14.0 | 0.00 | 0.00 | 0.00 | 46 | 1012.3 |
| 20260506013504 | 44 | 292 | 5.0 | 14.0 | 0.00 | 0.00 | 0.00 | 45 | 1012.3 |
| 20260506013021 | 45 | 265 | 6.0 | 13.0 | 0.00 | 0.00 | 0.00 | 44 | 1012.2 |
| 20260506012503 | 45 | 308 | 6.0 | 14.0 | 0.00 | 0.00 | 0.00 | 45 | 1012.2 |
| 20260506012007 | 45 | 317 | 8.0 | 18.0 | 0.00 | 0.00 | 0.00 | 44 | 1012.1 |
| 20260506011521 | 45 | 303 | 5.0 | 18.0 | 0.00 | 0.00 | 0.00 | 45 | 1012.0 |
| 20260506011008 | 45 | 310 | 6.0 | 18.0 | 0.00 | 0.00 | 0.00 | 43 | 1011.9 |
| 20260506010507 | 46 | 300 | 8.0 | 18.0 | 0.00 | 0.00 | 0.00 | 43 | 1011.9 |
| 20260506010008 | 46 | 296 | 5.0 | 15.0 | 0.00 | 0.00 | 0.00 | 43 | 1011.8 |
| 20260506005507 | 46 | 307 | 7.0 | 13.0 | 0.00 | 0.00 | 0.00 | 43 | 1011.7 |
| 20260506005008 | 46 | 307 | 3.0 | 12.0 | 0.00 | 0.00 | 0.00 | 44 | 1011.6 |
| 20260506004526 | 46 | 296 | 5.0 | 12.0 | 0.00 | 0.00 | 0.00 | 44 | 1011.6 |
| 20260506004003 | 46 | 284 | 6.0 | 15.0 | 0.00 | 0.00 | 0.00 | 44 | 1011.7 |
| 20260506003504 | 46 | 315 | 5.0 | 15.0 | 0.00 | 0.00 | 0.00 | 44 | 1011.7 |
| 20260506003011 | 46 | 297 | 4.0 | 14.0 | 0.00 | 0.00 | 0.00 | 45 | 1011.6 |
| 20260506002504 | 46 | 268 | 8.0 | 14.0 | 0.00 | 0.00 | 0.00 | 44 | 1011.6 |
| 20260506002007 | 46 | 16 | 4.0 | 13.0 | 0.00 | 0.00 | 0.00 | 44 | 1011.6 |
| 20260506001514 | 46 | 259 | 7.0 | 15.0 | 0.00 | 0.00 | 0.00 | 43 | 1011.4 |
| 20260506001007 | 46 | 307 | 6.0 | 20.0 | 0.00 | 0.00 | 0.00 | 43 | 1011.4 |
| 20260506000504 | 47 | 257 | 9.0 | 20.0 | 0.00 | 0.00 | 0.00 | 42 | 1011.3 |
| 20260506000015 | 47 | 300 | 9.0 | 16.0 | 0.00 | 0.00 | 0.00 | 43 | 1011.3 |
| 20260505235507 | 47 | 218 | 7.0 | 13.0 | 0.00 | 0.00 | 0.00 | 42 | 1011.3 |
| 20260505235010 | 47 | 265 | 5.0 | 16.0 | 0.00 | 0.00 | 0.00 | 42 | 1011.3 |
| 20260505234512 | 47 | 265 | 9.0 | 16.0 | 0.00 | 0.00 | 0.00 | 42 | 1011.2 |
| 20260505234007 | 47 | 309 | 9.0 | 15.0 | 0.00 | 0.00 | 0.00 | 41 | 1011.1 |
| 20260505233503 | 48 | 221 | 9.0 | 15.0 | 0.00 | 0.00 | 0.00 | 42 | 1011.2 |
| 20260505233021 | 48 | 292 | 7.0 | 20.0 | 0.00 | 0.00 | 0.00 | 41 | 1011.1 |
| 20260505232506 | 48 | 309 | 9.0 | 20.0 | 0.00 | 0.00 | 0.00 | 40 | 1011.1 |
| 20260505232010 | 48 | 275 | 5.0 | 15.0 | 0.00 | 0.00 | 0.00 | 42 | 1011.1 |
| 20260505231519 | 48 | 313 | 10.0 | 16.0 | 0.00 | 0.00 | 0.00 | 41 | 1011.1 |
| 20260505231008 | 48 | 51 | 7.0 | 16.0 | 0.00 | 0.00 | 0.00 | 40 | 1011.1 |
| 20260505230509 | 48 | 286 | 8.0 | 16.0 | 0.00 | 0.00 | 0.00 | 42 | 1011.2 |
| 20260505230005 | 48 | 292 | 8.0 | 17.0 | 0.00 | 0.00 | 0.00 | 41 | 1011.3 |
| 20260505225504 | 48 | 252 | 9.0 | 19.0 | 0.00 | 0.00 | 0.00 | 40 | 1011.3 |
| 20260505225004 | 49 | 308 | 13.0 | 19.0 | 0.00 | 0.00 | 0.00 | 40 | 1011.2 |
| 20260505224512 | 49 | 294 | 9.0 | 19.0 | 0.00 | 0.00 | 0.00 | 40 | 1011.2 |
| 20260505224003 | 50 | 298 | 11.0 | 21.0 | 0.00 | 0.00 | 0.00 | 38 | 1011.1 |
| 20260505223506 | 50 | 282 | 11.0 | 21.0 | 0.00 | 0.00 | 0.00 | 39 | 1011.0 |
| 20260505223013 | 49 | 284 | 7.0 | 18.0 | 0.00 | 0.00 | 0.00 | 41 | 1011.1 |
| 20260505222505 | 49 | 235 | 9.0 | 18.0 | 0.00 | 0.00 | 0.00 | 40 | 1011.0 |
| 20260505222003 | 49 | 303 | 10.0 | 20.0 | 0.00 | 0.00 | 0.00 | 41 | 1011.0 |
| 20260505221516 | 50 | 289 | 10.0 | 20.0 | 0.00 | 0.00 | 0.00 | 39 | 1011.0 |
| 20260505221013 | 50 | 221 | 9.0 | 19.0 | 0.00 | 0.00 | 0.00 | 40 | 1011.0 |
| 20260505220502 | 51 | 255 | 11.0 | 19.0 | 0.00 | 0.00 | 0.00 | 39 | 1010.9 |
| 20260505220018 | 50 | 250 | 9.0 | 19.0 | 0.00 | 0.00 | 0.00 | 41 | 1010.9 |
| 20260505215503 | 50 | 309 | 10.0 | 23.0 | 0.00 | 0.00 | 0.00 | 40 | 1010.9 |
| 20260505215003 | 50 | 249 | 10.0 | 23.0 | 0.00 | 0.00 | 0.00 | 39 | 1011.0 |
| 20260505214507 | 50 | 313 | 9.0 | 18.0 | 0.00 | 0.00 | 0.00 | 41 | 1011.0 |
| 20260505214002 | 50 | 338 | 10.0 | 16.0 | 0.00 | 0.00 | 0.00 | 39 | 1011.0 |
| 20260505213503 | 50 | 334 | 8.0 | 19.0 | 0.00 | 0.00 | 0.00 | 39 | 1011.2 |
| 20260505213008 | 50 | 277 | 9.0 | 22.0 | 0.00 | 0.00 | 0.00 | 41 | 1011.2 |
| 20260505212506 | 49 | 232 | 13.0 | 22.0 | 0.00 | 0.00 | 0.00 | 39 | 1011.2 |
| 20260505212008 | 49 | 273 | 8.0 | 18.0 | 0.00 | 0.00 | 0.00 | 40 | 1011.2 |
| 20260505211503 | 49 | 309 | 7.0 | 18.0 | 0.00 | 0.00 | 0.00 | 40 | 1011.2 |
| 20260505211003 | 49 | 247 | 7.0 | 18.0 | 0.00 | 0.00 | 0.00 | 42 | 1011.3 |
| 20260505210506 | 49 | 250 | 8.0 | 19.0 | 0.00 | 0.00 | 0.00 | 42 | 1011.3 |
| 20260505210004 | 49 | 249 | 10.0 | 21.0 | 0.00 | 0.00 | 0.00 | 42 | 1011.3 |
| 20260505205506 | 49 | 282 | 9.0 | 21.0 | 0.00 | 0.00 | 0.00 | 40 | 1011.4 |
| 20260505205005 | 49 | 259 | 9.0 | 17.0 | 0.00 | 0.00 | 0.00 | 40 | 1011.3 |
| 20260505204509 | 49 | 309 | 9.0 | 18.0 | 0.00 | 0.00 | 0.00 | 39 | 1011.2 |
| 20260505204003 | 49 | 252 | 9.0 | 18.0 | 0.00 | 0.00 | 0.00 | 41 | 1011.3 |
| 20260505203502 | 50 | 229 | 10.0 | 18.0 | 0.00 | 0.00 | 0.00 | 39 | 1011.3 |
| 20260505203016 | 50 | 254 | 11.0 | 19.0 | 0.00 | 0.00 | 0.00 | 40 | 1011.4 |
| 20260505202507 | 49 | 279 | 11.0 | 19.0 | 0.00 | 0.00 | 0.00 | 42 | 1011.4 |
| 20260505202004 | 49 | 275 | 8.0 | 20.0 | 0.00 | 0.00 | 0.00 | 45 | 1011.4 |
| 20260505201511 | 48 | 303 | 11.0 | 20.0 | 0.00 | 0.00 | 0.00 | 44 | 1011.5 |
| 20260505201006 | 48 | 237 | 9.0 | 18.0 | 0.00 | 0.00 | 0.00 | 42 | 1011.6 |
| 20260505200510 | 48 | 232 | 11.0 | 18.0 | 0.00 | 0.00 | 0.00 | 42 | 1011.6 |
| 20260505200014 | 48 | 236 | 10.0 | 15.0 | 0.00 | 0.00 | 0.00 | 43 | 1011.5 |
| 20260505195503 | 48 | 292 | 11.0 | 19.0 | 0.00 | 0.00 | 0.00 | 43 | 1011.5 |
| 20260505195008 | 48 | 261 | 8.0 | 24.0 | 0.00 | 0.00 | 0.00 | 42 | 1011.5 |
| 20260505194508 | 49 | 240 | 15.0 | 24.0 | 0.00 | 0.00 | 0.00 | 41 | 1011.6 |
| 20260505194004 | 50 | 241 | 7.0 | 17.0 | 0.00 | 0.00 | 0.00 | 41 | 1011.5 |
| 20260505193507 | 51 | 244 | 11.0 | 17.0 | 0.00 | 0.00 | 0.00 | 42 | 1011.4 |
| 20260505193019 | 50 | 284 | 9.0 | 16.0 | 0.00 | 0.00 | 0.00 | 44 | 1011.5 |
| 20260505192507 | 48 | 269 | 8.0 | 16.0 | 0.00 | 0.00 | 0.00 | 45 | 1011.6 |
| 20260505192007 | 48 | 232 | 8.0 | 17.0 | 0.00 | 0.00 | 0.00 | 43 | 1011.6 |
| 20260505191528 | 48 | 266 | 10.0 | 20.0 | 0.00 | 0.00 | 0.00 | 42 | 1011.4 |
| 20260505191003 | 49 | 249 | 12.0 | 20.0 | 0.00 | 0.00 | 0.00 | 42 | 1011.5 |
| 20260505190504 | 49 | 268 | 11.0 | 17.0 | 0.00 | 0.00 | 0.00 | 42 | 1011.4 |
| 20260505190008 | 49 | 273 | 5.0 | 17.0 | 0.00 | 0.00 | 0.00 | 46 | 1011.6 |
| 20260505185503 | 48 | 221 | 7.0 | 20.0 | 0.00 | 0.00 | 0.00 | 44 | 1011.7 |
| 20260505185004 | 48 | 302 | 10.0 | 20.0 | 0.00 | 0.00 | 0.00 | 43 | 1011.8 |
| 20260505184516 | 48 | 286 | 7.0 | 15.0 | 0.00 | 0.00 | 0.00 | 44 | 1011.7 |
| 20260505184005 | 48 | 298 | 8.0 | 16.0 | 0.00 | 0.00 | 0.00 | 43 | 1011.7 |
| 20260505183506 | 48 | 279 | 9.0 | 16.0 | 0.00 | 0.00 | 0.00 | 41 | 1011.6 |
| 20260505183013 | 49 | 252 | 10.0 | 22.0 | 0.00 | 0.00 | 0.00 | 42 | 1011.6 |
| 20260505182506 | 49 | 294 | 14.0 | 22.0 | 0.00 | 0.00 | 0.00 | 41 | 1011.7 |
| 20260505182012 | 49 | 272 | 12.0 | 19.0 | 0.00 | 0.00 | 0.00 | 40 | 1011.5 |
| 20260505181512 | 49 | 266 | 6.0 | 22.0 | 0.00 | 0.00 | 0.00 | 39 | 1011.6 |
| 20260505181005 | 49 | 307 | 13.0 | 22.0 | 0.00 | 0.00 | 0.00 | 39 | 1011.5 |
| 20260505180502 | 50 | 254 | 12.0 | 19.0 | 0.00 | 0.00 | 0.00 | 42 | 1011.5 |
| 20260505180012 | 49 | 277 | 9.0 | 21.0 | 0.00 | 0.00 | 0.00 | 43 | 1011.6 |
| 20260505175504 | 48 | 292 | 11.0 | 21.0 | 0.00 | 0.00 | 0.00 | 41 | 1011.6 |
| 20260505175004 | 48 | 294 | 10.0 | 20.0 | 0.00 | 0.00 | 0.00 | 42 | 1011.6 |
| 20260505174516 | 48 | 248 | 6.0 | 24.0 | 0.00 | 0.00 | 0.00 | 40 | 1011.5 |
| 20260505174005 | 49 | 279 | 11.0 | 24.0 | 0.00 | 0.00 | 0.00 | 40 | 1011.5 |
| 20260505173510 | 49 | 263 | 8.0 | 18.0 | 0.00 | 0.00 | 0.00 | 41 | 1011.6 |
| 20260505173023 | 48 | 250 | 7.0 | 13.0 | 0.00 | 0.00 | 0.00 | 42 | 1011.6 |
| 20260505172509 | 47 | 275 | 7.0 | 14.0 | 0.00 | 0.00 | 0.00 | 42 | 1011.7 |
| 20260505172005 | 47 | 254 | 8.0 | 18.0 | 0.00 | 0.00 | 0.00 | 41 | 1011.7 |
| 20260505171519 | 47 | 255 | 10.0 | 21.0 | 0.00 | 0.00 | 0.00 | 40 | 1011.7 |
| 20260505171007 | 48 | 307 | 12.0 | 21.0 | 0.00 | 0.00 | 0.00 | 40 | 1011.7 |
| 20260505170505 | 49 | 261 | 12.0 | 18.0 | 0.00 | 0.00 | 0.00 | 41 | 1011.6 |
| 20260505170011 | 48 | 263 | 12.0 | 18.0 | 0.00 | 0.00 | 0.00 | 43 | 1011.6 |
| 20260505165506 | 47 | 252 | 7.0 | 16.0 | 0.00 | 0.00 | 0.00 | 42 | 1011.7 |
| 20260505165007 | 48 | 240 | 7.0 | 16.0 | 0.00 | 0.00 | 0.00 | 42 | 1011.7 |
| 20260505164512 | 48 | 312 | 9.0 | 15.0 | 0.00 | 0.00 | 0.00 | 41 | 1011.7 |
| 20260505164007 | 48 | 310 | 9.0 | 15.0 | 0.00 | 0.00 | 0.00 | 42 | 1011.7 |
| 20260505163506 | 47 | 338 | 7.0 | 15.0 | 0.00 | 0.00 | 0.00 | 40 | 1011.7 |
| 20260505163024 | 47 | 250 | 7.0 | 16.0 | 0.00 | 0.00 | 0.00 | 44 | 1011.7 |
| 20260505162511 | 46 | 257 | 9.0 | 18.0 | 0.00 | 0.00 | 0.00 | 44 | 1011.7 |
| 20260505162009 | 47 | 257 | 11.0 | 18.0 | 0.00 | 0.00 | 0.00 | 41 | 1011.7 |
| 20260505161538 | 47 | 265 | 9.0 | 16.0 | 0.00 | 0.00 | 0.00 | 40 | 1011.7 |
| 20260505161003 | 48 | 261 | 6.0 | 20.0 | 0.00 | 0.00 | 0.00 | 42 | 1011.6 |
| 20260505160505 | 49 | 257 | 12.0 | 20.0 | 0.00 | 0.00 | 0.00 | 40 | 1011.7 |
| 20260505153021 | 46 | 347 | 7.0 | 17.0 | 0.00 | 0.00 | 0.00 | 44 | 1011.6 |
| 20260505152508 | 46 | 236 | 9.0 | 17.0 | 0.00 | 0.00 | 0.00 | 45 | 1011.6 |
| 20260505152010 | 46 | 311 | 8.0 | 15.0 | 0.00 | 0.00 | 0.00 | 44 | 1011.6 |
| 20260505151516 | 46 | 270 | 7.0 | 13.0 | 0.00 | 0.00 | 0.00 | 46 | 1011.7 |
| 20260505151006 | 45 | 306 | 7.0 | 13.0 | 0.00 | 0.00 | 0.00 | 44 | 1011.6 |
| 20260505150506 | 45 | 286 | 6.0 | 12.0 | 0.00 | 0.00 | 0.00 | 45 | 1011.6 |